Location: Unspecified
(58.7730°N, 5.8460°E)
Time: 14:00:51
(UTC+02:00)

Cosmos 1674 - Visible Passes

Search period start: 22 October 2017 00:00
Search period end: 31 October 2017 23:00
Orbit: 497 x 523 km, 82.5° (Epoch: 22 October)

Date Brightness Start Highest point End Pass type
(mag) Time Alt. Az. Time Alt. Az. Time Alt. Az.
22 Oct 5.2 06:07:58 10° SE 06:10:57 23° E 06:13:57 10° NE visible
22 Oct 2.8 07:42:41 10° SSW 07:46:19 48° WNW 07:49:59 10° N visible
22 Oct 6.0 19:04:20 10° NW 19:06:24 14° W 19:08:28 10° WSW visible
23 Oct 5.5 05:51:29 10° SE 05:54:13 19° E 05:56:57 10° NE visible
23 Oct 2.6 07:25:47 10° SSW 07:29:28 58° WNW 07:33:11 10° N visible
24 Oct 5.7 05:35:04 10° SE 05:37:29 17° E 05:39:55 10° NE visible
24 Oct 2.5 07:08:54 10° SSW 07:12:37 71° WNW 07:16:24 10° N visible
25 Oct 5.9 05:18:46 10° ESE 05:20:45 14° E 05:22:46 10° NE visible
25 Oct 2.5 06:52:03 10° SSW 06:55:48 86° WNW 06:59:35 10° NNE visible
26 Oct 6.0 05:02:38 10° ESE 05:04:03 12° E 05:05:28 10° ENE visible
26 Oct 2.7 06:35:15 10° S 06:38:58 79° E 06:42:45 10° NNE visible
27 Oct 3.0 06:18:28 10° S 06:22:10 65° E 06:25:54 10° NNE visible
27 Oct 4.0 07:55:22 10° WSW 07:58:10 20° WNW 08:01:00 10° N visible
28 Oct 3.4 06:01:43 10° S 06:05:21 53° E 06:09:03 10° NNE visible
28 Oct 3.8 07:38:14 10° WSW 07:41:15 23° WNW 07:44:19 10° N visible
29 Oct 3.7 04:46:25 21° SSE 04:48:33 44° E 04:52:09 10° NNE visible
29 Oct 3.6 06:21:24 11° WSW 06:24:20 26° WNW 06:27:35 10° N visible
30 Oct 4.1 04:30:51 31° SE 04:31:46 36° E 04:35:16 10° NNE visible
30 Oct 3.4 06:05:49 22° WSW 06:07:26 31° WNW 06:10:51 10° N visible
31 Oct 4.4 04:15:03 30° E 04:15:03 30° E 04:18:20 10° NNE visible
31 Oct 3.2 05:50:00 34° W 05:50:33 36° WNW 05:54:05 10° N visible
